BAW8648 LGKR-LIRN

Flight info

Callsign BAW8648
Flight time N/A
Altitude 36000
Route TIGRA2F TIGRA L995 EKTOL EKTOL1A
Aircraft A320/M-SDE3FGIJ1KRWXY/SB1

Departure

Time 2026-04-29 03:22
Airport Corfu Ioannis Kapodistrias International Airport (LGKR)

Arrival

Time N/A
Airport Naples International Airport (LIRN)
Time Latitude Longitude Altitude Speed Heading
2026-04-29 02:49 39.60879 19.91306 19 ft 0 kts 79°
2026-04-29 03:11 39.60877 19.91297 18 ft 4 kts 79°
2026-04-29 03:11 39.60872 19.91262 18 ft 4 kts 79°
2026-04-29 03:11 39.60867 19.91228 18 ft 4 kts 79°
2026-04-29 03:12 39.60864 19.91201 19 ft 4 kts 99°
2026-04-29 03:12 39.60875 19.91174 18 ft 4 kts 152°
2026-04-29 03:12 39.60899 19.91165 19 ft 4 kts 168°
2026-04-29 03:12 39.60908 19.91162 21 ft 0 kts 168°
2026-04-29 03:15 39.60902 19.91164 18 ft 2 kts 168°
2026-04-29 03:15 39.60878 19.91171 20 ft 5 kts 168°
2026-04-29 03:15 39.60829 19.91184 18 ft 9 kts 168°
2026-04-29 03:15 39.60756 19.91202 18 ft 13 kts 169°
2026-04-29 03:16 39.60663 19.91226 18 ft 14 kts 169°
2026-04-29 03:16 39.60608 19.91228 18 ft 1 kts 199°
2026-04-29 03:16 39.60598 19.91221 18 ft 3 kts 213°
2026-04-29 03:16 39.60577 19.91195 18 ft 6 kts 224°
2026-04-29 03:17 39.60531 19.91164 18 ft 10 kts 204°
2026-04-29 03:17 39.60437 19.91149 19 ft 16 kts 168°
2026-04-29 03:17 39.60318 19.91181 20 ft 18 kts 169°
2026-04-29 03:17 39.60188 19.91214 24 ft 20 kts 168°
2026-04-29 03:18 39.60045 19.91251 23 ft 23 kts 168°
2026-04-29 03:18 39.59885 19.91293 22 ft 24 kts 168°
2026-04-29 03:18 39.59710 19.91338 20 ft 27 kts 168°
2026-04-29 03:18 39.59518 19.91388 19 ft 27 kts 169°
2026-04-29 03:19 39.59370 19.91427 17 ft 15 kts 168°
2026-04-29 03:19 39.59259 19.91456 18 ft 16 kts 168°
2026-04-29 03:19 39.59203 19.91483 18 ft 6 kts 134°
2026-04-29 03:19 39.59169 19.91516 17 ft 4 kts 175°
2026-04-29 03:20 39.59145 19.91488 18 ft 5 kts 255°
2026-04-29 03:20 39.59173 19.91470 19 ft 6 kts 11°
2026-04-29 03:20 39.59216 19.91466 18 ft 5 kts 349°
2026-04-29 03:20 39.59222 19.91465 18 ft 0 kts 349°
2026-04-29 03:21 39.59282 19.91450 19 ft 37 kts 348°
2026-04-29 03:21 39.59768 19.91324 21 ft 102 kts 348°
2026-04-29 03:21 39.60636 19.91099 24 ft 150 kts 349°
2026-04-29 03:21 39.61693 19.90834 518 ft 152 kts 349°
2026-04-29 03:22 39.62729 19.90850 1153 ft 150 kts 19°
2026-04-29 03:22 39.63592 19.91636 1634 ft 160 kts 53°
2026-04-29 03:22 39.64007 19.93038 1964 ft 178 kts 86°
2026-04-29 03:22 39.63712 19.94662 2329 ft 196 kts 121°
2026-04-29 03:23 39.62670 19.95891 2697 ft 216 kts 158°
2026-04-29 03:23 39.61151 19.96064 3349 ft 225 kts 189°
2026-04-29 03:23 39.59581 19.95744 4076 ft 234 kts 188°
2026-04-29 03:23 39.57945 19.95469 4836 ft 241 kts 187°
2026-04-29 03:24 39.56258 19.95362 5627 ft 247 kts 168°
2026-04-29 03:24 39.54697 19.96333 6355 ft 255 kts 144°
2026-04-29 03:24 39.53301 19.97764 7224 ft 258 kts 140°
2026-04-29 03:24 39.51936 19.99289 8078 ft 261 kts 139°
2026-04-29 03:25 39.50451 20.00731 8629 ft 277 kts 155°
2026-04-29 03:25 39.48547 20.01293 9223 ft 287 kts 182°
2026-04-29 03:25 39.46618 20.00644 9954 ft 291 kts 210°
2026-04-29 03:25 39.45109 19.98884 10522 ft 303 kts 237°
2026-04-29 03:26 39.44401 19.96249 10748 ft 324 kts 267°
2026-04-29 03:26 39.44821 19.93350 11140 ft 338 kts 296°
2026-04-29 03:26 39.46111 19.90777 11783 ft 343 kts 307°
2026-04-29 03:26 39.47654 19.88407 12496 ft 346 kts 311°
2026-04-29 03:27 39.49300 19.86121 13202 ft 349 kts 313°
2026-04-29 03:27 39.50973 19.83833 13899 ft 351 kts 312°
2026-04-29 03:27 39.52635 19.81505 14563 ft 353 kts 311°
2026-04-29 03:27 39.54279 19.79129 15202 ft 356 kts 310°
2026-04-29 03:28 39.55888 19.76733 15814 ft 358 kts 310°
2026-04-29 03:28 39.57527 19.74238 16439 ft 360 kts 309°
2026-04-29 03:28 39.59146 19.71749 17038 ft 362 kts 309°
2026-04-29 03:28 39.60773 19.69240 17622 ft 365 kts 309°
2026-04-29 03:29 39.62414 19.66715 18215 ft 367 kts 309°
2026-04-29 03:29 39.64066 19.64178 18795 ft 369 kts 309°
2026-04-29 03:29 39.65736 19.61622 19361 ft 372 kts 309°
2026-04-29 03:29 39.67419 19.59050 19909 ft 375 kts 309°
2026-04-29 03:30 39.69118 19.56459 20435 ft 378 kts 309°
2026-04-29 03:30 39.70830 19.53846 20948 ft 382 kts 309°
2026-04-29 03:30 39.72532 19.51245 21437 ft 384 kts 309°
2026-04-29 03:30 39.74267 19.48584 21912 ft 387 kts 309°
2026-04-29 03:31 39.77766 19.43202 22783 ft 393 kts 309°
2026-04-29 03:31 39.79537 19.40475 23211 ft 396 kts 309°
2026-04-29 03:31 39.81319 19.37729 23642 ft 399 kts 309°
2026-04-29 03:32 39.83114 19.34961 24063 ft 401 kts 309°
2026-04-29 03:32 39.84917 19.32177 24478 ft 404 kts 309°
2026-04-29 03:32 39.86731 19.29374 24888 ft 406 kts 309°
2026-04-29 03:32 39.87967 19.27465 25161 ft 408 kts 309°
2026-04-29 03:33 39.89800 19.24632 25559 ft 411 kts 309°
2026-04-29 03:33 39.91652 19.21775 25953 ft 412 kts 309°
2026-04-29 03:33 39.93498 19.18922 26344 ft 414 kts 309°
2026-04-29 03:33 39.95360 19.16036 26716 ft 416 kts 309°
2026-04-29 03:34 39.97231 19.13142 27081 ft 419 kts 309°
2026-04-29 03:34 39.99114 19.10231 27438 ft 421 kts 309°
2026-04-29 03:34 40.01004 19.07299 27814 ft 423 kts 309°
2026-04-29 03:34 40.02897 19.04352 28200 ft 425 kts 309°
2026-04-29 03:35 40.04793 19.01378 28555 ft 427 kts 309°
2026-04-29 03:35 40.06672 18.98365 28889 ft 429 kts 308°
2026-04-29 03:35 40.08484 18.95267 29235 ft 430 kts 306°
2026-04-29 03:35 40.10254 18.92098 29546 ft 432 kts 305°
2026-04-29 03:36 40.12001 18.88895 29874 ft 434 kts 305°
2026-04-29 03:36 40.13755 18.85670 30238 ft 435 kts 305°